Ис

Россия / Свердловская область     58°47′30″N   59°43′00″E
темп.,
°C
ветер,
м/с
пор.,
м/с
влажн.,
%
обл.,
%
осадки,
мм/ч
давл.,
гПа
погр.,
м
5 марта, пт
пт523:00−11ю239534 0.0 99360
02:00−11ююв1297100 0.1 99038
05:00−10всв1297100 1.8 98877
08:00−11с2297100 0.5 98923
11:00−8ссз129199 0.8 991258
14:00−5з2686100 0.3 993679
17:00−5з4880100 0.4 9951001
20:00−9зюз4128697 0.0 997478
6 марта, сб
сб623:00−11з4138592 0.0 1000477
02:00−15з3128776 0.0 1001352
05:00−16зюз358954 0.0 1003124
08:00−16зюз3691100 0.0 1004183
11:00−12з5107761 0.0 1004967
14:00−11з697564 0.0 10051152
17:00−12з5107982 0.1 1007888
20:00−17з379028 0.0 1008136
7 марта, вс
вс723:00−19зюз229324 0.0 101026
02:00−20зюз229481 0.0 101028
05:00−22зюз129463 0.0 101121
08:00−22зюз129516 0.0 101020
11:00−14зюз12838 0.0 1009297
14:00−11зюз117782 0.0 1007699
17:00−11ююз118091 0.1 1007558
20:00−16з1196100 0.1 100720
8 марта, пн
пн823:00−18зсз1293100 0.1 100720
02:00−21з129322 0.0 100720
05:00−23зюз119410 0.0 100720
08:00−24зюз01950 0.0 100620
11:00−16ююв118734 0.0 1005235
14:00−12юв2385100 0.0 1003573
17:00−11вюв2493100 0.4 1002434
20:00−13св2497100 0.6 1002161
9 марта, вт
вт923:00−15с2297100 1.1 100356
02:00−17ссз1298100 0.1 100320
05:00−18с1298100 0.1 100331
08:00−18с2698100 0.1 1002208
11:00−15ссв5894100 0.3 999403
14:00−13с51092100 0.6 999519
17:00−13с4892100 1.0 1002547
20:00−15с1496100 0.1 1005133